Regional Weather Roundup
Issued by NWS Goodland, KS

Home | Current Version | Previous Version | Graphics & Text | Print | Product List | Glossary On
Versions: 1 2 3 4 5 6 7 8 9 10 11 12 13 14 15 16 17 18 19 20 21 22 23 24 25 26 27 28 29 30 31 32 33 34 35 36 37 38 39 40 41 42 43 44 45 46 47 48 49 50
000
ASUS43 KGLD 282359
RWRGLD

GOODLAND FORECAST AREA HOURLY WEATHER ROUNDUP
NATIONAL WEATHER SERVICE GOODLAND KS
500 PM MST WED JAN 28 2015

...OFFICIAL OBSERVATIONS...

CITY           SKY/WX    TMP DP  RH WIND       PRES   REMARKS
GOODLAND KS    CLEAR     54  34  46 NW22G31   30.03R
HILL CITY KS   CLEAR     63  33  32 NW17      29.89R
IMPERIAL NEB   PTCLDY    54  34  46 NW25G35   30.01R
MCCOOK NEB     PTCLDY    60  29  30 NW24G33   29.93R
AKRON CO       PTCLDY    47  34  60 N25G33    30.10R
BURLINGTON CO  CLEAR     52  34  50 NW16G26   30.07R
LIMON CO       CLEAR     49  27  42 N16       30.11R
$$

...UNOFFICIAL OBSERVATIONS...

CITY           SKY/WX    TMP DP  RH WIND       PRES   REMARKS
COLBY KS       CLEAR     57  37  47 NW18G28   29.99R
GOVE KS          N/A     64  32  30 MISG        N/A
NORTON KS      CLEAR     59  25  27 NW18G25   29.88R
SHARON SPRINGS   N/A     59  33  37 N18G29      N/A
KIT CARSON CO    N/A     56  30  37 MISG        N/A
YUMA CO          N/A     50  35  56 NW20G28     N/A
$$


USA.gov is the U.S. government's official web portal to all federal, state and local government web resources and services.